星链-31996 (STARLINK-31996 )

导读 | 星芒AI

STARLINK-31996 是 SpaceX Starlink 卫星互联网项目中的第 31996 颗卫星,属于低轨道(LEO)卫星群,旨在为全球提供高速互联网服务。该卫星采用先进设计,具备高效通信能力和自动避障系统,以确保运行安全。它由 SpaceX 发射并部署,与其他 Starlink 卫星协同工作,提升网络覆盖与连接稳定性。该项目致力于缩小数字鸿沟,为偏远地区提供可靠的网络接入。

基本信息
目录编号:
60100
目录名称:
STARLINK-31996
国际标识:
2024-117K
轨道中心:
EARTH
卫星名称:
星链-31996
卫星全名:
星链-31996 (STARLINK-31996 )
卫星状态:
在轨 (已飞行498 天)
发射日期:
2024-06-23 UTC
国别 :
美国 (US)
星等 :
--
轨道信息
数据来源 国际轨道数据
星历时间: 2025-11-02T13:18:05+0800
23小时前
查看轨道信息
半长轴: 6853.403km
偏心率: 0.0001293
轨道倾角: 53.161°
近地点辐角 93.331°
升交点赤经 268.974°
平近点角 266.784°
近地点: 474.381km
远地点: 476.155km
周期: 94.106分钟
每日圈数: 15.301832
详细信息
固有亮度:
5
最大亮度:
1.5
卫星平台:
Starlink v2.0 mini
覆盖范围:
全球
运营商:
太空探索技术公司
运营商所在国:
美国
制造商(研发单位):
太空探索技术公司
制造商所在国:
美国
使用方式:
暂无
卫星简介
星链(Starlink)计划是由太空探索技术公司(SpaceX)提出的一个巨型低轨卫星互联网星座项目,计划在2019年至2024年间在太空搭建由约1.2万颗卫星组成的“星链”网络,其中1584颗将部署在地球上空550千米处的近地轨道,并从2020年开始工作。该卫星仍在工作。
2D轨道图
3D轨道图
轨道高度分析图
轨道倾角分析图
轨道综合分析图
查看轨道综合分析图